Location: Unspecified
(0.0000°N, 0.0000°E)
Time: 02:19:15
(UTC+00:00)

Vanguard 2 - All Passes

Search period start: 23 February 2018 00:00
Search period end: 05 March 2018 00:00
Orbit: 553 x 2939 km, 32.9° (Epoch: 21 February)

Date Brightness Start Highest point End Pass type
(mag) Time Alt. Az. Time Alt. Az. Time Alt. Az.
23 Feb - 02:05:33 10° W 02:09:22 30° SSW 02:14:30 10° SSE visible
23 Feb - 08:41:04 10° SSW 08:50:26 19° SSE 09:01:24 10° ESE daylight
23 Feb - 10:49:19 10° SW 11:05:06 48° SE 11:21:21 10° ENE daylight
23 Feb - 13:00:31 10° WSW 13:18:39 80° NW 13:33:34 10° NE daylight
23 Feb - 15:17:08 10° W 15:31:05 31° NW 15:41:32 10° NNE daylight
24 Feb - 00:15:15 10° NW 00:19:05 51° NE 00:23:22 10° ESE night (unlit)
24 Feb - 02:24:42 10° WSW 02:27:50 18° SSW 02:31:43 10° SSE visible
24 Feb - 08:58:33 10° SSW 09:09:36 25° SSE 09:22:40 10° ESE daylight
24 Feb - 11:07:09 10° SW 11:23:39 60° SE 11:40:25 10° ENE daylight
24 Feb - 13:19:12 10° WSW 13:36:59 64° NW 13:51:30 10° NE daylight
24 Feb - 15:37:48 10° W 15:49:38 24° NNW 15:58:49 10° NNE daylight
25 Feb - 00:33:12 10° WNW 00:37:07 73° SW 00:41:37 10° SE night (unlit)
25 Feb - 02:45:26 10° SSW 02:46:28 11° SSW 02:47:34 10° S visible
25 Feb - 07:11:42 10° S 07:13:54 10° SSE 07:16:14 10° SSE daylight
25 Feb - 09:16:04 10° SSW 09:28:29 32° SSE 09:43:17 10° E daylight
25 Feb - 11:25:08 10° SW 11:42:06 75° SE 11:59:06 10° ENE daylight
25 Feb - 13:38:16 10° WSW 13:55:20 51° NW 14:09:17 10° NE daylight
25 Feb - 15:59:15 10° WNW 16:08:27 18° NNW 16:15:55 10° N daylight
25 Feb - 22:43:50 10° NNW 22:46:59 19° NNE 22:49:50 10° ENE night (unlit)
26 Feb - 00:51:37 10° W 00:55:14 34° SSW 00:59:24 10° SE night (unlit)
26 Feb - 07:27:33 10° S 07:33:16 14° SSE 07:39:58 10° SE daylight
26 Feb - 09:33:39 10° SSW 09:47:08 41° SE 10:03:16 10° E daylight
26 Feb - 11:43:19 10° SW 12:00:30 89° NW 12:17:28 10° NE daylight
26 Feb - 13:57:47 10° W 14:13:48 40° NW 14:26:56 10° NNE daylight
26 Feb - 16:21:39 10° NW 16:27:32 13° NNW 16:32:37 10° N daylight
26 Feb - 23:01:06 10° NW 23:05:12 36° NNE 23:08:51 10° E night (unlit)
27 Feb - 01:10:38 10° WSW 01:13:29 18° SSW 01:16:39 10° SSE night (unlit)
27 Feb - 07:44:26 10° S 07:52:22 19° SSE 08:02:10 10° ESE daylight
27 Feb - 09:51:19 10° SW 10:05:36 52° SE 10:22:44 10° ENE daylight
27 Feb - 12:01:44 10° WSW 12:18:54 73° NW 12:35:37 10° NE daylight
27 Feb - 14:17:52 10° W 14:32:26 31° NNW 14:44:28 10° NNE daylight
27 Feb - 21:13:14 10° N 21:14:03 10° NNE 21:14:51 10° NNE visible
27 Feb - 23:18:54 10° NW 23:23:17 77° NNE 23:27:14 10° ESE night (unlit)
28 Feb - 08:01:36 10° SSW 08:11:11 25° SSE 08:23:30 10° E daylight
28 Feb - 10:09:08 10° SW 10:23:59 65° SE 10:41:44 10° ENE daylight
28 Feb - 12:20:28 10° WSW 12:37:20 59° NW 12:53:34 10° NE daylight
28 Feb - 14:38:34 10° WNW 14:51:18 24° NNW 15:01:57 10° NNE daylight
28 Feb - 21:28:54 10° NNW 21:32:39 18° NNE 21:35:43 10° ENE visible
28 Feb - 23:37:10 10° WNW 23:41:20 48° SW 23:45:10 10° SE night (unlit)
01 Mar - 08:18:56 10° SSW 08:29:45 32° SE 08:44:04 10° E daylight
01 Mar - 10:27:07 10° SW 10:42:19 81° SE 11:00:23 10° ENE daylight
01 Mar - 12:39:34 10° WSW 12:55:53 47° NW 13:11:23 10° NE daylight
01 Mar - 14:59:57 10° WNW 15:10:27 19° NNW 15:19:22 10° NNE daylight
01 Mar - 21:46:07 10° NNW 21:51:05 30° NNE 21:54:52 10° E visible
01 Mar - 23:55:57 10° W 23:59:22 24° SW 00:02:38 10° SSE night (unlit)
02 Mar - 06:32:17 10° S 06:35:52 12° SSE 06:39:57 10° SE daylight
02 Mar - 08:36:24 10° SSW 08:48:06 42° SE 09:03:59 10° ENE daylight
02 Mar - 10:45:18 10° WSW 11:00:41 83° NW 11:18:45 10° NE daylight
02 Mar - 12:59:09 10° W 13:14:36 37° NNW 13:29:06 10° NNE daylight
02 Mar - 15:21:55 10° NW 15:29:53 15° NNW 15:36:48 10° N daylight
02 Mar - 19:56:08 10° N 19:59:13 13° NNE 20:01:51 10° NE visible
02 Mar - 22:03:50 10° NW 22:09:21 57° NNE 22:13:24 10° ESE night (unlit)
03 Mar - 00:15:49 10° WSW 00:17:29 12° SSW 00:19:08 10° S night (unlit)
03 Mar - 06:48:17 10° S 06:54:39 17° SE 07:02:40 10° ESE daylight
03 Mar - 08:54:02 10° SW 09:06:22 55° SE 09:23:23 10° ENE daylight
03 Mar - 11:03:45 10° WSW 11:19:08 67° NW 11:36:53 10° NE daylight
03 Mar - 13:19:14 10° W 13:33:32 30° NNW 13:46:46 10° NNE daylight
03 Mar - 15:44:14 10° NW 15:49:33 12° NNW 15:54:21 10° N daylight
03 Mar - 20:12:46 10° NNW 20:18:02 19° NNE 20:21:58 10° ENE visible
03 Mar - 22:21:58 10° WNW 22:27:26 74° SW 22:31:29 10° SE night (unlit)
04 Mar - 07:05:09 10° SSW 07:13:08 24° SE 07:23:59 10° E daylight
04 Mar - 09:11:51 10° SW 09:24:35 70° SE 09:42:20 10° ENE daylight
04 Mar - 11:22:31 10° WSW 11:37:43 54° NNW 11:54:51 10° NE daylight
04 Mar - 13:39:56 10° WNW 13:52:43 24° NNW 14:04:27 10° NNE daylight
04 Mar - 16:06:15 10° NNW 16:09:23 11° N 16:12:19 10° N daylight
04 Mar - 18:21:50 10° N 18:24:46 11° N 18:27:21 10° NNE daylight
04 Mar - 20:30:06 10° NNW 20:36:39 30° NNE 20:41:10 10° E visible
04 Mar - 22:40:32 10° WNW 22:45:23 37° SW 22:49:11 10° SSE night (unlit)
